Retour au catalogue

STARLINK-38283

ActifCommunicationsSSO
NORAD 100311·PAYLOAD·🇺🇸 United States

Lancé Aug 12, 2026 depuis Vandenberg Space Force Base

Loading…

Prochains Passages (prochaines 24 heures)

TLE

FraisSource: Space-Track

Époque: Sep 14, 2026, 22:01 UTC

1 A0311U 26184L   26257.91741299 -.00209435  00000-0 -66326-2 0  9990
2 A0311  97.2827 123.0988 0000647 138.4470 221.6822 15.33605600  6500

Suivez STARLINK-38283 en temps réel avec AllMySat

Download on the App Store